Weather History for LICC - November, 2013

Change the Weather History Date:

Tuesday, November 19, 2013

  Actual Average Record
Temperature  
Mean Temperature 60 °F -  
Max Temperature 68 °F 65 °F 73 °F (2006)
Min Temperature 53 °F 46 °F 41 °F (1997)
Degree Days  
Heating Degree Days 4    
Growing Degree Days 10 (Base 50)    
Moisture  
Dew Point 50 °F    
Average Humidity 67    
Maximum Humidity 88    
Minimum Humidity 43    
Precipitation  
Precipitation 0.00 in 0.10 in - ()
Sea Level Pressure  
Sea Level Pressure 29.75 in    
Wind  
Wind Speed 9 mph ()    
Max Wind Speed 24 mph    
Max Gust Speed 23 mph    
Visibility 5.8 miles    
Events Rain    
Averages and records for this station are not official NWS values.
T = Trace of Precipitation, MM = Missing Value Source: Averaged Metar Reports

Daily Weather History Graph

Daily Weather History Graph

Search for Another Location

Airport or City:

Trip Planner

Search our weather history database for the weather conditions in past years. The results will help you decide how hot, cold, wet, or windy it might be!

Date:

Astronomy

Nov. 19, 2013 Rise Set
Actual Time 6:43 AM CET 4:46 PM CET
Civil Twilight 6:15 AM CET 5:14 PM CET
Nautical Twilight 5:43 AM CET 5:46 PM CET
Astronomical Twilight 5:12 AM CET 6:17 PM CET
Moon 6:23 PM CET (11/19) 8:08 AM CET (11/19)
Length of Visible Light 10h 59m
Length of Day
10h 03m
Full, 97% of the Moon is Illuminated
Nov 19
Full
Nov 25
Last Quarter
Dec 3
New
Dec 9
First Quarter
Dec 17
Full

Hourly Weather History & Observations

Time (CET) Temp. Dew Point Humidity Pressure Visibility Wind Dir Wind Speed Gust Speed Precip Events Conditions
12:20 AM 66.2 °F 57.2 °F 73% 29.80 in 6.2 mi SSE 10.4 mph 23.0 mph N/A   Mostly Cloudy
12:50 AM 66.2 °F 59.0 °F 78% 29.80 in 6.2 mi SSE 9.2 mph - N/A Rain Light Rain
1:20 AM 66.2 °F 59.0 °F 78% 29.80 in 6.2 mi SE 10.4 mph - N/A Rain Light Rain
1:50 AM 64.4 °F 60.8 °F 88% 29.77 in 4.3 mi SE 8.1 mph - N/A Rain Rain
2:50 AM 64.4 °F 60.8 °F 88% 29.74 in 6.2 mi SE 6.9 mph - N/A Rain Light Rain
3:20 AM 66.2 °F 60.8 °F 83% 29.74 in 6.2 mi SSE 5.8 mph - N/A   Drizzle
3:50 AM 66.2 °F 60.8 °F 83% 29.71 in 6.2 mi SSE 4.6 mph - N/A Rain Light Rain
4:20 AM 64.4 °F 60.8 °F 88% 29.71 in 6.2 mi SSW 4.6 mph - N/A Rain Light Rain
4:50 AM 62.6 °F 59.0 °F 88% 29.71 in 6.2 mi Variable 1.2 mph - N/A Rain Light Rain
5:20 AM 60.8 °F 55.4 °F 82% 29.71 in 6.2 mi WSW 6.9 mph - N/A   Mostly Cloudy
5:50 AM 60.8 °F 53.6 °F 77% 29.71 in 6.2 mi West 9.2 mph - N/A   Partly Cloudy
6:20 AM 60.8 °F 51.8 °F 72% 29.71 in 6.2 mi West 11.5 mph - N/A   Partly Cloudy
6:50 AM 59.0 °F 51.8 °F 77% 29.71 in 6.2 mi WSW 10.4 mph - N/A   Partly Cloudy
7:20 AM 57.2 °F 51.8 °F 82% 29.74 in 3.7 mi WSW 5.8 mph - N/A   Partly Cloudy
7:50 AM 59.0 °F 51.8 °F 77% 29.74 in 3.7 mi WSW 5.8 mph - N/A   Unknown
8:20 AM 60.8 °F 51.8 °F 72% 29.74 in 5.0 mi West 8.1 mph - N/A   Unknown
8:50 AM 60.8 °F 51.8 °F 72% 29.74 in 5.0 mi WSW 11.5 mph - N/A   Unknown
9:20 AM 62.6 °F 50.0 °F 63% 29.74 in 5.0 mi WSW 12.7 mph - N/A   Clear
9:50 AM 64.4 °F 50.0 °F 59% 29.74 in 4.3 mi WSW 11.5 mph - N/A   Clear
10:20 AM 66.2 °F 53.6 °F 64% 29.77 in 4.3 mi WSW 12.7 mph - N/A   Unknown
10:50 AM 66.2 °F 50.0 °F 56% 29.74 in 4.3 mi West 10.4 mph - N/A   Partly Cloudy
11:20 AM 66.2 °F 48.2 °F 52% 29.74 in 4.3 mi WSW 12.7 mph - N/A   Partly Cloudy
11:50 AM 66.2 °F 48.2 °F 52% 29.74 in 5.0 mi WSW 13.8 mph - N/A   Partly Cloudy
12:20 PM 66.2 °F 50.0 °F 56% 29.71 in 5.6 mi SW 16.1 mph - N/A   Scattered Clouds
12:50 PM 68.0 °F 51.8 °F 56% 29.71 in 6.2 mi SW 15.0 mph - N/A   Scattered Clouds
1:20 PM 68.0 °F 46.4 °F 46% 29.71 in 6.2 mi WSW 19.6 mph - N/A   Scattered Clouds
1:50 PM 68.0 °F 44.6 °F 43% 29.71 in 6.2 mi WSW 20.7 mph - N/A   Scattered Clouds
2:20 PM 66.2 °F 44.6 °F 46% 29.74 in 6.2 mi WSW 18.4 mph - N/A   Scattered Clouds
2:50 PM 66.2 °F 42.8 °F 43% 29.71 in 6.2 mi SW 24.2 mph - N/A   Scattered Clouds
3:20 PM 64.4 °F 44.6 °F 49% 29.74 in 6.2 mi WSW 16.1 mph - N/A   Scattered Clouds
3:50 PM 64.4 °F 44.6 °F 49% 29.77 in 6.2 mi WSW 15.0 mph - N/A   Scattered Clouds
4:20 PM 62.6 °F 44.6 °F 52% 29.77 in 6.2 mi WSW 11.5 mph - N/A   Scattered Clouds
4:50 PM 60.8 °F 42.8 °F 52% 29.77 in 6.2 mi WSW 9.2 mph - N/A   Scattered Clouds
5:20 PM 60.8 °F 44.6 °F 55% 29.77 in 6.2 mi West 5.8 mph - N/A   Scattered Clouds
5:50 PM 59.0 °F 44.6 °F 59% 29.77 in 6.2 mi WSW 6.9 mph - N/A   Scattered Clouds
6:20 PM 59.0 °F 44.6 °F 59% 29.80 in 6.2 mi West 6.9 mph - N/A   Scattered Clouds
6:50 PM 59.0 °F 44.6 °F 59% 29.80 in 6.2 mi SW 5.8 mph - N/A   Scattered Clouds
7:20 PM 57.2 °F 44.6 °F 63% 29.80 in 6.2 mi SW 4.6 mph - N/A   Scattered Clouds
7:50 PM 57.2 °F 46.4 °F 67% 29.80 in 6.2 mi SSW 5.8 mph - N/A   Scattered Clouds
8:20 PM 57.2 °F 46.4 °F 67% 29.80 in 6.2 mi SW 6.9 mph - N/A   Drizzle
8:50 PM 57.2 °F 46.4 °F 67% 29.80 in 6.2 mi SW 4.6 mph - N/A   Light Drizzle
9:20 PM 57.2 °F 46.4 °F 67% 29.80 in 6.2 mi SW 6.9 mph - N/A   Scattered Clouds
9:50 PM 55.4 °F 46.4 °F 72% 29.80 in 6.2 mi WSW 6.9 mph - N/A   Scattered Clouds
10:50 PM 53.6 °F 46.4 °F 77% 29.80 in 6.2 mi SW 4.6 mph - N/A   Partly Cloudy
11:20 PM 53.6 °F 46.4 °F 77% 29.80 in 6.2 mi WSW 5.8 mph - N/A   Partly Cloudy
11:50 PM 53.6 °F 46.4 °F 77% 29.80 in 6.2 mi SSW 8.1 mph - N/A   Partly Cloudy